Other Public Products
Issued by NWS Charleston, SC

Current Version | Previous Version | Text Only | Print | Product List | Glossary Off
Versions: 1 2 3 4 5 6 7 8 9 10 11 12 13 14 15 16 17 18 19 20 21 22 23 24 25 26 27 28 29 30 31 32 33 34 35 36 37 38 39 40 41 42 43 44 45 46 47 48 49 50

000
FPUS82 KCHS 280627
OPUCHS

TEST...KCHS/KSAV Gateway Observations...TEST
National Weather Service Charleston SC
200 AM EDT TUE MAR 28 2017

NOTE: "fair" indicates few or no clouds below 12,000 feet with no
significant weather and/or obstructions to visibility.

SCZ050-WAZ558-NCZ071-TXZ119-213-PAZ071-DCZ001-FLZ074-172-MI076-
NYZ176-178-MAZ016-IL014-TNZ027-NJZ106-GAZ044-MD014-280700-

...Gateway Observations for Charleston International...

CITY           SKY/WX    TMP DP  RH WIND       PRES   REMARKS
Chas Airport   PTCLDY    63  58  83 S6        30.02S
6HR MIN TEMP:  62; 6HR MAX TEMP:  68;

Seattle        LGT RAIN  45  43  93 S13       30.25S
6HR MIN TEMP:  45; 6HR MAX TEMP:  49; 6HR PCP:  0.03;

Charlotte      CLOUDY    67  59  75 S16       29.95S
6HR MIN TEMP:  65; 6HR MAX TEMP:  74; 6HR PCP: TRACE;

Dallas DFW     CLEAR     61  55  81 E5        29.87F
6HR MIN TEMP:  61; 6HR MAX TEMP:  72;

Dallas Love    PTCLDY    63  55  75 E5        29.88F
6HR MIN TEMP:  63; 6HR MAX TEMP:  72;

Philladelphia  CLOUDY    52  50  93 NE6       29.94F FOG
6HR MIN TEMP:  52; 6HR MAX TEMP:  57;

Wash National  CLOUDY    57  55  93 CALM      29.89F
6HR MIN TEMP:  57; 6HR MAX TEMP:  68; 6HR PCP: TRACE;

Baltimore      CLOUDY    55  54  96 CALM      29.89F
6HR MIN TEMP:  55; 6HR MAX TEMP:  61; 6HR PCP: TRACE;

Miami          PTCLDY    70  59  68 CALM      30.02S
6HR MIN TEMP:  70; 6HR MAX TEMP:  74;

Detroit        CLOUDY    53  47  79 N9        29.90F
6HR MIN TEMP:  53; 6HR MAX TEMP:  59;

Newark         LGT RAIN  48  46  93 NE3       29.97F
6HR MIN TEMP:  47; 6HR MAX TEMP:  54; 6HR PCP: TRACE;

Laguardia      CLOUDY    44  41  89 NE3       29.98S FOG
6HR MIN TEMP:  42; 6HR MAX TEMP:  49; 6HR PCP:  0.03;

J F K          CLOUDY    48  46  93 NE7       29.99F
6HR MIN TEMP:  46; 6HR MAX TEMP:  50;

Boston Logan   CLOUDY    37  36  96 N6        30.04S WCI  32
6HR MIN TEMP:  36; 6HR MAX TEMP:  41;

Ft. Lauderdale PTCLDY    72  60  66 E6        30.01S
6HR MIN TEMP:  71; 6HR MAX TEMP:  74;

Chicago O`Hare CLOUDY    42  36  79 NE8       29.99R
6HR MIN TEMP:  42; 6HR MAX TEMP:  45;

Chicago Midway CLOUDY    42  37  82 N10G21    29.99R
6HR MIN TEMP:  42; 6HR MAX TEMP:  44;

Houston Bush   CLOUDY    70  68  93 SE3       29.88F
6HR MIN TEMP:  70; 6HR MAX TEMP:  81;

Houston Hobby  PTCLDY    71  70  96 CALM      29.88S
6HR MIN TEMP:  71; 6HR MAX TEMP:  78;

Nashville      PTCLDY    59  57  93 W5        29.88R
6HR MIN TEMP:  57; 6HR MAX TEMP:  61; 6HR PCP:  0.10;

Atlanta        CLOUDY    65  60  84 W6        29.96S
6HR MIN TEMP:  64; 6HR MAX TEMP:  75; 6HR PCP:  0.03;


$$

GAZ044-118-TXZ119-213-NCZ071-DCZ001-MDZ014-506-PAZ021-071-NJZ106-
NYZ176-178-MAZ106-OHZ011-021-055-MIZ076-KYZ091-ILZ014-INZ047-
MNZ060-ONZ431-280700-

...Gateway Observations for Savannah International...

CITY           SKY/WX    TMP DP  RH WIND       PRES   REMARKS
Savannah Arpt  MOCLDY    66  59  78 S8        30.03S
6HR MIN TEMP:  64; 6HR MAX TEMP:  70;

Atlanta        CLOUDY    65  60  84 W6        29.96S
6HR MIN TEMP:  64; 6HR MAX TEMP:  75; 6HR PCP:  0.03;

Charlotte      CLOUDY    67  59  75 S16       29.95S
6HR MIN TEMP:  65; 6HR MAX TEMP:  74; 6HR PCP: TRACE;

Dallas DFW     CLEAR     61  55  81 E5        29.87F
6HR MIN TEMP:  61; 6HR MAX TEMP:  72;

Houston Bush   CLOUDY    70  68  93 SE3       29.88F
6HR MIN TEMP:  70; 6HR MAX TEMP:  81;

Wash National  CLOUDY    57  55  93 CALM      29.89F
6HR MIN TEMP:  57; 6HR MAX TEMP:  68; 6HR PCP: TRACE;

Wash Dulles    CLOUDY    57  55  93 CALM      29.88F
6HR MIN TEMP:  56; 6HR MAX TEMP:  68; 6HR PCP:  0.04;

Baltimore      CLOUDY    55  54  96 CALM      29.89F
6HR MIN TEMP:  55; 6HR MAX TEMP:  61; 6HR PCP: TRACE;

Philadelphia   CLOUDY    52  50  93 NE6       29.94F FOG
6HR MIN TEMP:  52; 6HR MAX TEMP:  57;

Newark         LGT RAIN  48  46  93 NE3       29.97F
6HR MIN TEMP:  47; 6HR MAX TEMP:  54; 6HR PCP: TRACE;

Laguardia      CLOUDY    44  41  89 NE3       29.98S FOG
6HR MIN TEMP:  42; 6HR MAX TEMP:  49; 6HR PCP:  0.03;

J F K          CLOUDY    48  46  93 NE7       29.99F
6HR MIN TEMP:  46; 6HR MAX TEMP:  50;

Boston         CLOUDY    37  36  96 N6        30.04S WCI  32
6HR MIN TEMP:  36; 6HR MAX TEMP:  41;

Pittsburg      CLOUDY    56  50  80 CALM      29.86F
6HR MIN TEMP:  56; 6HR MAX TEMP:  65;

Akron          RAIN      53  49  86 NE8       29.86F FOG
6HR MIN TEMP:  53; 6HR MAX TEMP:  59; 6HR PCP:  0.16;

Cleveland      CLOUDY    53  46  77 E5        29.89F
6HR MIN TEMP:  53; 6HR MAX TEMP:  55;

Cincinnati     CLOUDY    56  55  97 S7        29.83F
6HR MIN TEMP:  56; 6HR MAX TEMP:  65; 6HR PCP:  0.09;

Columbus       CLOUDY    56  56 100 SW3       29.83S
Detroit        CLOUDY    53  47  79 N9        29.90F
6HR MIN TEMP:  53; 6HR MAX TEMP:  59;

Chicago O`Hare CLOUDY    42  36  79 NE8       29.99R
6HR MIN TEMP:  42; 6HR MAX TEMP:  45;

Minneapolis    CLEAR     42  35  76 CALM      30.03R
6HR MIN TEMP:  41; 6HR MAX TEMP:  53;

Indianapolis   CLOUDY    55  54  96 N10       29.85S
6HR MIN TEMP:  55; 6HR MAX TEMP:  60; 6HR PCP:  0.12;

Toronto Canada MOCLDY    50  48  93 N9        29.88S

$$




USA.gov is the U.S. government's official web portal to all federal, state and local government web resources and services.